Time,TemperatureF,DewpointF,PressureIn,WindDirection,WindDirectionDegrees,WindSpeedMPH,WindSpeedGustMPH,Humidity,HourlyPrecipIn,Conditions,Clouds,dailyrainin,SoftwareType,DateUTC
2013-03-30 00:02:00,55.0,45.0,-100.00,SSE,148,6.0,8.0,69,-99.99,,,-99.99,,2013-03-30 07:02:00,
2013-03-30 00:12:00,55.0,45.0,-100.00,SE,133,4.0,6.0,69,-99.99,,,-99.99,,2013-03-30 07:12:00,
2013-03-30 00:22:00,55.0,45.0,-100.00,ESE,119,2.0,4.0,69,-99.99,,,-99.99,,2013-03-30 07:22:00,
2013-03-30 00:32:00,55.0,45.0,-100.00,SE,140,3.0,6.0,69,-99.99,,,-99.99,,2013-03-30 07:32:00,
2013-03-30 00:42:00,55.0,45.0,-100.00,SE,140,3.0,6.0,69,-99.99,,,-99.99,,2013-03-30 07:42:00,
2013-03-30 00:52:00,55.0,43.0,-100.00,ESE,119,4.0,7.0,65,-99.99,,,-99.99,,2013-03-30 07:52:00,
2013-03-30 01:01:00,56.0,42.0,-100.00,East,89,3.0,4.0,59,-99.99,,,-99.99,,2013-03-30 08:01:00,
2013-03-30 01:12:00,55.0,41.0,-100.00,ESE,116,4.0,7.0,60,-99.99,,,-99.99,,2013-03-30 08:12:00,
2013-03-30 01:21:00,55.0,42.0,-100.00,SE,139,5.0,7.0,61,-99.99,,,-99.99,,2013-03-30 08:21:00,
2013-03-30 01:32:00,55.0,42.0,-100.00,SE,139,5.0,7.0,61,-99.99,,,-99.99,,2013-03-30 08:32:00,
2013-03-30 01:42:00,55.0,41.0,-100.00,ESE,118,6.0,8.0,58,-99.99,,,-99.99,,2013-03-30 08:42:00,
2013-03-30 01:52:00,54.0,40.0,-100.00,SE,136,5.0,7.0,60,-99.99,,,-99.99,,2013-03-30 08:52:00,
2013-03-30 02:02:00,54.0,40.0,-100.00,SE,140,5.0,7.0,60,-99.99,,,-99.99,,2013-03-30 09:02:00,
2013-03-30 02:12:00,54.0,39.0,-100.00,ESE,107,4.0,6.0,57,-99.99,,,-99.99,,2013-03-30 09:12:00,
2013-03-30 02:22:00,56.0,36.0,-100.00,ESE,121,3.0,4.0,47,-99.99,,,-99.99,,2013-03-30 09:22:00,
2013-03-30 02:33:00,57.0,36.0,-100.00,ESE,117,3.0,6.0,46,-99.99,,,-99.99,,2013-03-30 09:33:00,
2013-03-30 02:42:00,57.0,36.0,-100.00,ESE,117,3.0,6.0,46,-99.99,,,-99.99,,2013-03-30 09:42:00,
2013-03-30 02:52:00,57.0,36.0,-100.00,ESE,117,3.0,6.0,46,-99.99,,,-99.99,,2013-03-30 09:52:00,
2013-03-30 03:02:00,55.0,38.0,-100.00,East,99,5.0,6.0,52,-99.99,,,-99.99,,2013-03-30 10:02:00,
2013-03-30 03:12:00,57.0,39.0,-100.00,ENE,60,5.0,6.0,50,-99.99,,,-99.99,,2013-03-30 10:12:00,
2013-03-30 03:23:00,56.0,40.0,-100.00,NW,321,2.0,4.0,54,-99.99,,,-99.99,,2013-03-30 10:23:00,
2013-03-30 03:32:00,55.0,39.0,-100.00,SSE,162,2.0,4.0,55,-99.99,,,-99.99,,2013-03-30 10:32:00,
2013-03-30 03:42:00,54.0,40.0,-100.00,ESE,112,3.0,4.0,58,-99.99,,,-99.99,,2013-03-30 10:42:00,
2013-03-30 03:52:00,55.0,42.0,-100.00,ENE,77,3.0,4.0,62,-99.99,,,-99.99,,2013-03-30 10:52:00,
2013-03-30 04:02:00,55.0,42.0,-100.00,NE,55,3.0,5.0,61,-99.99,,,-99.99,,2013-03-30 11:02:00,
2013-03-30 04:12:00,54.0,42.0,-100.00,ESE,121,2.0,6.0,63,-99.99,,,-99.99,,2013-03-30 11:12:00,
2013-03-30 04:22:00,52.0,41.0,-100.00,SE,136,3.0,4.0,65,-99.99,,,-99.99,,2013-03-30 11:22:00,
2013-03-30 04:32:00,52.0,41.0,-100.00,SE,124,3.0,4.0,65,-99.99,,,-99.99,,2013-03-30 11:32:00,
2013-03-30 04:42:00,53.0,43.0,-100.00,ESE,108,4.0,5.0,69,-99.99,,,-99.99,,2013-03-30 11:42:00,
2013-03-30 04:52:00,52.0,43.0,-100.00,ESE,115,4.0,5.0,71,-99.99,,,-99.99,,2013-03-30 11:52:00,
2013-03-30 05:02:00,51.0,43.0,-100.00,ESE,114,4.0,4.0,73,-99.99,,,-99.99,,2013-03-30 12:02:00,
2013-03-30 05:12:00,51.0,43.0,-100.00,SE,130,4.0,6.0,74,-99.99,,,-99.99,,2013-03-30 12:12:00,
2013-03-30 05:22:00,50.0,40.0,-100.00,SE,138,6.0,8.0,69,-99.99,,,-99.99,,2013-03-30 12:22:00,
2013-03-30 05:32:00,50.0,40.0,-100.00,SSE,147,6.0,8.0,68,-99.99,,,-99.99,,2013-03-30 12:32:00,
2013-03-30 05:42:00,50.0,41.0,-100.00,SE,142,5.0,7.0,71,-99.99,,,-99.99,,2013-03-30 12:42:00,
2013-03-30 05:52:00,50.0,41.0,-100.00,SE,142,6.0,8.0,70,-99.99,,,-99.99,,2013-03-30 12:52:00,
2013-03-30 06:02:00,51.0,41.0,-100.00,SE,132,5.0,6.0,68,-99.99,,,-99.99,,2013-03-30 13:02:00,
2013-03-30 06:12:00,51.0,40.0,-100.00,SE,144,4.0,6.0,66,-99.99,,,-99.99,,2013-03-30 13:12:00,
2013-03-30 06:21:00,52.0,40.0,-100.00,SE,138,6.0,8.0,63,-99.99,,,-99.99,,2013-03-30 13:21:00,
2013-03-30 06:32:00,53.0,39.0,-100.00,SE,138,5.0,8.0,60,-99.99,,,-99.99,,2013-03-30 13:32:00,
2013-03-30 06:42:00,52.0,39.0,-100.00,SE,140,6.0,8.0,62,-99.99,,,-99.99,,2013-03-30 13:42:00,
2013-03-30 06:52:00,53.0,38.0,-100.00,ESE,121,4.0,7.0,57,-99.99,,,-99.99,,2013-03-30 13:52:00,
2013-03-30 07:02:00,55.0,38.0,-100.00,East,99,4.0,5.0,52,-99.99,,,-99.99,,2013-03-30 14:02:00,
2013-03-30 07:11:00,54.0,37.0,-100.00,ESE,103,4.0,6.0,52,-99.99,,,-99.99,,2013-03-30 14:11:00,
2013-03-30 07:22:00,52.0,36.0,-100.00,ESE,113,6.0,7.0,55,-99.99,,,-99.99,,2013-03-30 14:22:00,
2013-03-30 07:32:00,52.0,37.0,-100.00,ESE,113,6.0,8.0,56,-99.99,,,-99.99,,2013-03-30 14:32:00,
2013-03-30 07:42:00,51.0,37.0,-100.00,ESE,113,7.0,8.0,59,-99.99,,,-99.99,,2013-03-30 14:42:00,
2013-03-30 07:52:00,51.0,37.0,-100.00,ESE,120,5.0,7.0,59,-99.99,,,-99.99,,2013-03-30 14:52:00,
2013-03-30 08:02:00,52.0,37.0,-100.00,ESE,121,2.0,4.0,57,-99.99,,,-99.99,,2013-03-30 15:02:00,
2013-03-30 08:12:00,53.0,40.0,-100.00,WNW,290,2.0,4.0,61,-99.99,,,-99.99,,2013-03-30 15:12:00,
2013-03-30 08:22:00,49.0,41.0,-100.00,NNW,329,5.0,6.0,73,-99.99,,,-99.99,,2013-03-30 15:22:00,
2013-03-30 08:33:00,47.0,43.0,-100.00,NNW,343,5.0,6.0,86,-99.99,,,-99.99,,2013-03-30 15:33:00,
2013-03-30 08:42:00,47.0,43.0,-100.00,East,98,3.0,5.0,85,-99.99,,,-99.99,,2013-03-30 15:42:00,
2013-03-30 08:52:00,49.0,44.0,-100.00,West,271,1.0,2.0,83,-99.99,,,-99.99,,2013-03-30 15:52:00,
2013-03-30 09:03:00,52.0,45.0,-100.00,ESE,116,3.0,5.0,78,-99.99,,,-99.99,,2013-03-30 16:03:00,
2013-03-30 09:12:00,54.0,44.0,-100.00,East,100,2.0,4.0,70,-99.99,,,-99.99,,2013-03-30 16:12:00,
2013-03-30 09:22:00,55.0,46.0,-100.00,North,351,2.0,4.0,71,-99.99,,,-99.99,,2013-03-30 16:22:00,
2013-03-30 09:32:00,55.0,48.0,-100.00,NW,325,4.0,5.0,77,-99.99,,,-99.99,,2013-03-30 16:32:00,
2013-03-30 09:42:00,55.0,47.0,-100.00,NW,326,4.0,5.0,75,-99.99,,,-99.99,,2013-03-30 16:42:00,
2013-03-30 09:52:00,56.0,47.0,-100.00,NW,322,4.0,7.0,72,-99.99,,,-99.99,,2013-03-30 16:52:00,
2013-03-30 10:02:00,57.0,47.0,-100.00,NW,316,4.0,6.0,69,-99.99,,,-99.99,,2013-03-30 17:02:00,
2013-03-30 10:12:00,57.0,47.0,-100.00,NW,318,3.0,6.0,68,-99.99,,,-99.99,,2013-03-30 17:12:00,
2013-03-30 10:22:00,59.0,46.0,-100.00,NNW,332,2.0,4.0,62,-99.99,,,-99.99,,2013-03-30 17:22:00,
2013-03-30 10:32:00,60.0,46.0,-100.00,NW,322,4.0,7.0,59,-99.99,,,-99.99,,2013-03-30 17:32:00,
2013-03-30 10:42:00,60.0,46.0,-100.00,NW,311,5.0,8.0,59,-99.99,,,-99.99,,2013-03-30 17:42:00,
2013-03-30 10:52:00,61.0,43.0,-100.00,NNW,334,3.0,7.0,52,-99.99,,,-99.99,,2013-03-30 17:52:00,
2013-03-30 11:02:00,62.0,43.0,-100.00,NNW,334,4.0,8.0,50,-99.99,,,-99.99,,2013-03-30 18:02:00,
2013-03-30 11:12:00,62.0,43.0,-100.00,NW,308,6.0,11.0,50,-99.99,,,-99.99,,2013-03-30 18:12:00,
2013-03-30 11:22:00,63.0,43.0,-100.00,NW,306,7.0,10.0,48,-99.99,,,-99.99,,2013-03-30 18:22:00,
2013-03-30 11:32:00,64.0,41.0,-100.00,NW,308,8.0,12.0,43,-99.99,,,-99.99,,2013-03-30 18:32:00,
2013-03-30 11:42:00,64.0,40.0,-100.00,NW,311,10.0,13.0,41,-99.99,,,-99.99,,2013-03-30 18:42:00,
2013-03-30 11:52:00,64.0,40.0,-100.00,WNW,302,9.0,13.0,42,-99.99,,,-99.99,,2013-03-30 18:52:00,
2013-03-30 12:02:00,64.0,40.0,-100.00,NW,304,11.0,15.0,42,-99.99,,,-99.99,,2013-03-30 19:02:00,
2013-03-30 12:12:00,64.0,40.0,-100.00,NW,304,11.0,17.0,42,-99.99,,,-99.99,,2013-03-30 19:12:00,
2013-03-30 12:22:00,64.0,41.0,-100.00,WNW,299,10.0,17.0,43,-99.99,,,-99.99,,2013-03-30 19:22:00,
2013-03-30 12:32:00,65.0,44.0,-100.00,WNW,290,11.0,15.0,47,-99.99,,,-99.99,,2013-03-30 19:32:00,
2013-03-30 12:42:00,65.0,44.0,-100.00,WNW,290,11.0,15.0,47,-99.99,,,-99.99,,2013-03-30 19:42:00,
2013-03-30 13:02:00,63.0,43.0,-100.00,WNW,301,11.0,17.0,48,-99.99,,,-99.99,,2013-03-30 20:02:00,
2013-03-30 13:12:00,63.0,43.0,-100.00,WNW,301,11.0,17.0,48,-99.99,,,-99.99,,2013-03-30 20:12:00,
2013-03-30 13:21:00,64.0,44.0,-100.00,WNW,299,11.0,16.0,48,-99.99,,,-99.99,,2013-03-30 20:21:00,
2013-03-30 13:32:00,64.0,44.0,-100.00,WNW,299,11.0,16.0,48,-99.99,,,-99.99,,2013-03-30 20:32:00,
2013-03-30 13:42:00,64.0,46.0,-100.00,NW,304,12.0,18.0,52,-99.99,,,-99.99,,2013-03-30 20:42:00,
2013-03-30 13:52:00,64.0,46.0,-100.00,WNW,297,12.0,17.0,52,-99.99,,,-99.99,,2013-03-30 20:52:00,
2013-03-30 14:02:00,65.0,45.0,-100.00,NW,304,10.0,17.0,49,-99.99,,,-99.99,,2013-03-30 21:02:00,
2013-03-30 14:12:00,65.0,45.0,-100.00,NW,309,9.0,14.0,48,-99.99,,,-99.99,,2013-03-30 21:12:00,
2013-03-30 14:22:00,65.0,45.0,-100.00,NW,309,9.0,14.0,48,-99.99,,,-99.99,,2013-03-30 21:22:00,
2013-03-30 14:32:00,66.0,45.0,-100.00,WNW,297,10.0,17.0,47,-99.99,,,-99.99,,2013-03-30 21:32:00,
2013-03-30 14:43:00,65.0,45.0,-100.00,WNW,303,11.0,16.0,49,-99.99,,,-99.99,,2013-03-30 21:43:00,
2013-03-30 14:50:00,65.0,46.0,-100.00,WNW,294,12.0,20.0,51,-99.99,,,-99.99,,2013-03-30 21:50:00,
2013-03-30 14:52:00,65.0,45.0,-100.00,WNW,300,13.0,18.0,49,-99.99,,,-99.99,,2013-03-30 21:52:00,
2013-03-30 15:02:00,65.0,45.0,-100.00,WNW,300,13.0,18.0,49,-99.99,,,-99.99,,2013-03-30 22:02:00,
2013-03-30 15:12:00,65.0,45.0,-100.00,WNW,291,11.0,20.0,49,-99.99,,,-99.99,,2013-03-30 22:12:00,
2013-03-30 15:23:00,65.0,46.0,-100.00,WNW,294,12.0,20.0,51,-99.99,,,-99.99,,2013-03-30 22:23:00,
2013-03-30 15:32:00,65.0,46.0,-100.00,WNW,294,12.0,20.0,51,-99.99,,,-99.99,,2013-03-30 22:32:00,
2013-03-30 15:43:00,65.0,46.0,-100.00,WNW,294,12.0,20.0,51,-99.99,,,-99.99,,2013-03-30 22:43:00,
2013-03-30 16:02:00,65.0,47.0,-100.00,WNW,293,12.0,19.0,53,-99.99,,,-99.99,,2013-03-30 23:02:00,
2013-03-30 16:12:00,64.0,48.0,-100.00,WNW,285,11.0,17.0,56,-99.99,,,-99.99,,2013-03-30 23:12:00,
2013-03-30 16:22:00,65.0,49.0,-100.00,WNW,289,11.0,16.0,57,-99.99,,,-99.99,,2013-03-30 23:22:00,
2013-03-30 16:32:00,64.0,48.0,-100.00,WNW,301,10.0,16.0,57,-99.99,,,-99.99,,2013-03-30 23:32:00,
2013-03-30 16:42:00,65.0,49.0,-100.00,WNW,283,9.0,14.0,56,-99.99,,,-99.99,,2013-03-30 23:42:00,
2013-03-30 16:52:00,64.0,48.0,-100.00,WNW,301,8.0,13.0,56,-99.99,,,-99.99,,2013-03-30 23:52:00,
2013-03-30 17:02:00,64.0,48.0,-100.00,WNW,301,9.0,12.0,57,-99.99,,,-99.99,,2013-03-31 00:02:00,
2013-03-30 17:11:00,64.0,48.0,-100.00,NW,306,10.0,14.0,57,-99.99,,,-99.99,,2013-03-31 00:11:00,
2013-03-30 17:22:00,63.0,48.0,-100.00,WNW,302,9.0,15.0,58,-99.99,,,-99.99,,2013-03-31 00:22:00,
2013-03-30 17:32:00,64.0,48.0,-100.00,NW,306,9.0,13.0,57,-99.99,,,-99.99,,2013-03-31 00:32:00,
2013-03-30 17:42:00,63.0,48.0,-100.00,WNW,303,8.0,12.0,57,-99.99,,,-99.99,,2013-03-31 00:42:00,
2013-03-30 17:52:00,63.0,48.0,-100.00,WNW,300,7.0,11.0,57,-99.99,,,-99.99,,2013-03-31 00:52:00,
2013-03-30 18:02:00,63.0,48.0,-100.00,WNW,298,8.0,11.0,57,-99.99,,,-99.99,,2013-03-31 01:02:00,
2013-03-30 18:12:00,63.0,48.0,-100.00,WNW,298,8.0,11.0,57,-99.99,,,-99.99,,2013-03-31 01:12:00,
2013-03-30 18:22:00,63.0,47.0,-100.00,WNW,303,8.0,11.0,56,-99.99,,,-99.99,,2013-03-31 01:22:00,
2013-03-30 18:32:00,62.0,47.0,-100.00,WNW,301,9.0,11.0,57,-99.99,,,-99.99,,2013-03-31 01:32:00,
2013-03-30 18:42:00,61.0,47.0,-100.00,WNW,301,8.0,11.0,59,-99.99,,,-99.99,,2013-03-31 01:42:00,
2013-03-30 18:52:00,60.0,47.0,-100.00,WNW,302,8.0,10.0,61,-99.99,,,-99.99,,2013-03-31 01:52:00,
2013-03-30 19:02:00,59.0,46.0,-100.00,NW,310,7.0,10.0,62,-99.99,,,-99.99,,2013-03-31 02:02:00,
2013-03-30 19:12:00,59.0,46.0,-100.00,NW,314,3.0,5.0,62,-99.99,,,-99.99,,2013-03-31 02:12:00,
2013-03-30 19:22:00,59.0,46.0,-100.00,WNW,299,2.0,3.0,63,-99.99,,,-99.99,,2013-03-31 02:22:00,
2013-03-30 19:32:00,58.0,46.0,-100.00,NW,322,3.0,6.0,64,-99.99,,,-99.99,,2013-03-31 02:32:00,
2013-03-30 19:42:00,56.0,46.0,-100.00,WNW,292,5.0,8.0,69,-99.99,,,-99.99,,2013-03-31 02:42:00,
2013-03-30 19:50:00,54.0,48.0,-100.00,West,280,1.0,3.0,79,-99.99,,,-99.99,,2013-03-31 02:50:00,
2013-03-30 19:52:00,55.0,47.0,-100.00,West,270,6.0,8.0,75,-99.99,,,-99.99,,2013-03-31 02:52:00,
2013-03-30 20:02:00,54.0,47.0,-100.00,WNW,291,4.0,7.0,77,-99.99,,,-99.99,,2013-03-31 03:02:00,
2013-03-30 20:12:00,54.0,47.0,-100.00,WNW,292,3.0,5.0,77,-99.99,,,-99.99,,2013-03-31 03:12:00,
2013-03-30 20:22:00,54.0,48.0,-100.00,West,280,1.0,3.0,79,-99.99,,,-99.99,,2013-03-31 03:22:00,
2013-03-30 20:32:00,54.0,48.0,-100.00,West,280,1.0,3.0,79,-99.99,,,-99.99,,2013-03-31 03:32:00,
2013-03-30 20:43:00,54.0,48.0,-100.00,West,280,1.0,3.0,79,-99.99,,,-99.99,,2013-03-31 03:43:00,
2013-03-30 21:13:00,52.0,46.0,-100.00,East,97,2.0,3.0,80,-99.99,,,-99.99,,2013-03-31 04:13:00,
2013-03-30 21:22:00,52.0,47.0,-100.00,ESE,113,3.0,4.0,82,-99.99,,,-99.99,,2013-03-31 04:22:00,
2013-03-30 21:32:00,52.0,47.0,-100.00,East,96,3.0,5.0,82,-99.99,,,-99.99,,2013-03-31 04:32:00,
2013-03-30 21:42:00,52.0,47.0,-100.00,East,96,3.0,5.0,82,-99.99,,,-99.99,,2013-03-31 04:42:00,
2013-03-30 21:52:00,52.0,47.0,-100.00,East,96,3.0,5.0,82,-99.99,,,-99.99,,2013-03-31 04:52:00,
2013-03-30 22:02:00,49.0,45.0,-100.00,SE,146,5.0,7.0,85,-99.99,,,-99.99,,2013-03-31 05:02:00,
2013-03-30 22:12:00,50.0,46.0,-100.00,SE,128,6.0,8.0,85,-99.99,,,-99.99,,2013-03-31 05:12:00,
2013-03-30 22:22:00,52.0,47.0,-100.00,ESE,109,5.0,6.0,82,-99.99,,,-99.99,,2013-03-31 05:22:00,
2013-03-30 22:32:00,52.0,46.0,-100.00,East,96,4.0,5.0,79,-99.99,,,-99.99,,2013-03-31 05:32:00,
2013-03-30 22:42:00,52.0,46.0,-100.00,East,96,4.0,5.0,79,-99.99,,,-99.99,,2013-03-31 05:42:00,
2013-03-30 22:52:00,50.0,46.0,-100.00,ESE,113,4.0,6.0,85,-99.99,,,-99.99,,2013-03-31 05:52:00,
2013-03-30 23:01:00,50.0,45.0,-100.00,ESE,113,5.0,6.0,83,-99.99,,,-99.99,,2013-03-31 06:01:00,
2013-03-30 23:11:00,50.0,45.0,-100.00,ESE,113,5.0,6.0,83,-99.99,,,-99.99,,2013-03-31 06:11:00,
2013-03-30 23:21:00,50.0,45.0,-100.00,ESE,113,5.0,6.0,83,-99.99,,,-99.99,,2013-03-31 06:21:00,
2013-03-30 23:32:00,51.0,44.0,-100.00,East,91,3.0,4.0,78,-99.99,,,-99.99,,2013-03-31 06:32:00,
2013-03-30 23:40:00,48.0,43.0,-100.00,ESE,114,3.0,4.0,83,-99.99,,,-99.99,,2013-03-31 06:40:00,
2013-03-30 23:42:00,51.0,45.0,-100.00,ESE,103,3.0,4.0,79,-99.99,,,-99.99,,2013-03-31 06:42:00,
2013-03-30 23:52:00,49.0,44.0,-100.00,ESE,120,4.0,6.0,83,-99.99,,,-99.99,,2013-03-31 06:52:00,